Regional Weather Roundup
Issued by NWS

Home | Current Version | Previous Version | Text Only | Print | Product List | Glossary Off
Versions: 1 2 3 4 5 6 7 8 9 10 11 12 13 14 15 16 17 18 19 20 21 22 23 24 25 26 27 28 29 30 31 32 33 34 35 36 37 38 39 40 41 42 43 44 45 46 47 48 49 50

000
ASUS43 KLMK 250202
RWRKY
KENTUCKY REGIONAL WEATHER ROUNDUP
NATIONAL WEATHER SERVICE LOUISVILLE KY
1000 PM EDT THU JUL 24 2014

NOTE "FAIR" INDICATES FEW OR NO CLOUDS BELOW 12,000 FEET
WITH NO SIGNIFICANT WEATHER AND/OR OBSTRUCTIONS TO VISIBILITY.

KYZ001>023-026-027-061>063-070>075-250300-
WESTERN AND SOUTH CENTRAL KENTUCKY

CITY           SKY/WX    TMP DP  RH WIND       PRES   REMARKS
PADUCAH        CLEAR     68  60  75 CALM      30.03R
HENDERSON      CLEAR     66  57  72 CALM      30.04R
OWENSBORO      PTCLDY    73  56  55 CALM      30.04R
HOPKINSVILLE   CLEAR     69  56  64 N5        30.02S
BOWLING GREEN  CLEAR     69  54  58 NE7       30.03R
GLASGOW        CLEAR     69  54  58 CALM      30.04R
$$

KYZ024-025-028>034-038-045-046-053-250300-
NORTH CENTRAL KENTUCKY

CITY           SKY/WX    TMP DP  RH WIND       PRES   REMARKS
LOUISVILLE/SDF PTCLDY    72  54  53 N7        30.05R
LOUISVILLE/LOU PTCLDY    72  54  53 N5        30.06R
FORT KNOX      MOCLDY    66  57  72 VRB5      30.05R
$$

KYZ035>037-039>044-047>052-055>060-089>105-250300-
NORTHEAST KENTUCKY

CITY           SKY/WX    TMP DP  RH WIND       PRES   REMARKS
LEXINGTON      MOCLDY    69  55  60 N6        30.06R
COVINGTON      MOCLDY    70  54  56 N8        30.06R
FRANKFORT      MOCLDY    68  57  68 CALM      30.04S
$$

KYZ054-064>069-076>088-106>120-250300-
SOUTHEAST KENTUCKY

CITY           SKY/WX    TMP DP  RH WIND       PRES   REMARKS
JACKSON        CLEAR     65  62  90 CALM      30.06R
LONDON         CLEAR     65  61  87 CALM      30.06R
SOMERSET       NOT AVBL
MIDDLESBORO    CLEAR     65  62  90 CALM      30.05R
MONTICELLO     CLEAR     63  62  96 CALM      30.07R FOG
$$



USA.gov is the U.S. government's official web portal to all federal, state and local government web resources and services.